1529373601.18,16122,17.06,74374.5,5.35,4.75,4.75,0,*78
1529373602.44,16123,17.06,74376.5,5.35,4.75,4.79,0,*75
1529373603.67,16124,17.06,74372.8,5.37,4.79,4.79,0,*7C
1529373604.93,16125,17.06,74374.5,5.35,4.63,4.63,0,*7F
1529373606.15,16126,17.06,74372.8,5.33,4.75,4.63,0,*7D
1529373607.41,16127,17.06,74374.0,5.35,4.75,4.75,0,*7D
1529373608.62,16128,17.06,74378.0,5.37,4.81,4.79,0,*77
1529373609.88,16129,17.06,74378.5,5.35,4.75,4.75,0,*73
1529373611.11,16130,17.06,74370.8,5.37,4.79,4.79,0,*79
1529373612.33,16131,17.06,74376.3,5.33,4.75,4.67,0,*7F
1529373613.56,16132,17.06,74372.5,5.33,4.79,4.75,0,*73
1529373614.79,16133,17.06,74374.8,5.37,4.79,4.79,0,*7A
1529373616.05,16134,17.06,74372.3,5.35,4.75,4.79,0,*73
1529373617.25,16135,17.06,74372.5,5.37,4.81,4.79,0,*7B
1529373618.49,16136,17.06,74370.0,5.37,4.75,4.75,0,*7F
1529373619.75,16137,17.06,74372.5,5.35,4.75,4.75,0,*7C
1529373620.94,16138,17.06,74370.0,5.37,4.79,4.81,0,*76
1529373622.17,16139,17.06,74372.0,5.37,4.79,4.79,0,*70
1529373623.43,16140,17.06,74372.5,5.35,4.75,4.79,0,*70
1529373624.63,16141,17.06,74372.0,5.37,4.79,4.81,0,*78
1529373625.86,16142,17.06,74374.3,5.33,4.75,4.75,0,*78
1529373627.09,16143,17.06,74370.0,5.37,4.79,4.79,0,*7D
1529373628.35,16144,17.06,74370.5,5.35,4.75,4.75,0,*78
1529373629.61,16145,17.06,74372.3,5.35,4.67,4.79,0,*76
1529373630.84,16146,17.06,74366.5,5.33,4.79,4.75,0,*70
1529373632.09,16147,17.06,74368.8,5.35,4.75,4.79,0,*77
1529373633.32,16148,17.06,74370.5,5.37,4.67,4.79,0,*79
1529373634.58,16149,17.06,74370.8,5.35,4.75,4.67,0,*76
1529373635.84,16150,17.06,74370.3,5.35,4.75,4.67,0,*7E
1529373637.09,16151,17.06,74372.3,5.35,4.75,4.67,0,*7F
1529373638.35,16152,17.06,74368.3,5.35,4.75,4.67,0,*7C
1529373639.58,16153,17.06,74370.8,5.33,4.75,4.67,0,*7B
1529373640.83,16154,17.06,74374.3,5.35,4.67,4.67,0,*79
1529373642.09,16155,17.06,74374.8,5.35,4.75,4.67,0,*7B
1529373643.32,16156,17.06,74372.8,5.37,4.79,4.79,0,*79
1529373644.58,16157,17.06,74378.0,5.35,4.75,4.67,0,*79
1529373645.81,16158,17.06,74370.0,5.37,4.71,4.79,0,*7F
1529373647.07,16159,17.06,74370.0,5.35,4.67,4.75,0,*77
1529373648.28,16160,17.06,74372.0,5.37,4.81,4.79,0,*7B
1529373649.54,16161,17.06,74372.5,5.35,4.75,4.75,0,*7F
1529373650.76,16162,17.06,74372.8,5.33,4.75,4.67,0,*79
1529373652.02,16163,17.06,74378.3,5.35,4.75,4.67,0,*7E
1529373653.28,16164,17.06,74372.8,5.35,4.75,4.75,0,*7A
1529373654.51,16165,17.06,74374.3,5.37,4.79,4.79,0,*79
1529373655.77,16166,17.06,74374.8,5.35,4.75,4.75,0,*78
1529373657.03,16167,17.06,74370.0,5.35,4.79,4.79,0,*79
1529373658.25,16168,17.06,74372.3,5.33,4.79,4.79,0,*70
1529373659.51,16169,17.06,74374.0,5.35,4.75,4.75,0,*77
1529373660.69,16170,17.06,74372.0,5.37,4.81,4.81,0,*7D
1529373661.92,16171,17.06,74372.0,5.33,4.79,4.75,0,*74
1529373663.15,16172,17.06,74372.0,5.33,4.75,4.75,0,*7B
1529373664.37,16173,17.06,74374.8,5.33,4.75,4.79,0,*76
1529373665.61,16174,17.06,74368.5,5.33,4.79,4.75,0,*71
1529373666.87,16175,17.06,74372.0,5.35,4.75,4.75,0,*7A
1529373668.12,16176,17.06,74372.3,5.35,4.75,4.79,0,*75
1529373669.32,16177,17.06,74374.3,5.37,4.79,4.81,0,*7D
1529373670.53,16178,17.06,74372.3,5.37,4.81,4.75,0,*7E
1529373671.7,16179,17.06,74372.0,5.37,4.81,4.81,0,*74
1529373672.96,16180,17.06,74370.0,5.35,4.67,4.67,0,*70
1529373674.15,16181,17.06,74372.3,5.37,4.79,4.81,0,*74
1529373675.39,16182,17.06,74372.5,5.37,4.71,4.79,0,*78
1529373676.65,16183,17.06,74372.8,5.35,4.67,4.67,0,*73
1529373677.91,16184,17.06,74372.8,5.35,4.75,4.75,0,*74
1529373679.17,16185,17.06,74372.5,5.35,4.67,4.75,0,*76
1529373680.43,16186,17.06,74372.3,5.35,4.79,4.75,0,*7A
1529373681.6,16187,17.06,74374.8,5.37,4.81,4.81,0,*75
1529373682.86,16188,17.06,74372.3,5.35,4.79,4.75,0,*74
1529373684.12,16189,17.06,74372.8,5.35,4.79,4.75,0,*75
1529373685.38,16190,17.06,74374.3,5.35,4.75,4.75,0,*71
1529373686.64,16191,17.06,74378.0,5.35,4.75,4.75,0,*70
1529373687.87,16192,17.06,74374.3,5.33,4.75,4.75,0,*75
1529373689.13,16193,17.06,74376.5,5.35,4.79,4.75,0,*7E
1529373690.39,16194,17.06,74376.8,5.35,4.75,4.75,0,*75
1529373691.59,16195,17.06,74376.5,5.37,4.79,4.81,0,*71
1529373692.82,16196,17.06,74384.3,5.37,4.79,4.79,0,*75
1529373694.07,16197,17.06,74382.8,5.35,4.79,4.79,0,*76
1529373695.28,16198,17.06,74378.5,5.37,4.81,4.79,0,*7C
1529373696.53,16199,17.06,74378.0,5.35,4.75,4.79,0,*74
1529373697.79,16200,17.06,74376.3,5.35,4.75,4.79,0,*77
1529373699.05,16201,17.06,74382.8,5.35,4.75,4.79,0,*76
1529373700.31,16202,17.06,74380.3,5.35,4.75,4.75,0,*79
1529373701.57,16203,17.06,74384.0,5.35,4.75,4.75,0,*78
1529373702.82,16204,17.06,74380.3,5.35,4.79,4.79,0,*7F
1529373704.08,16205,17.06,74376.3,5.35,4.75,4.75,0,*7E
1529373705.31,16206,17.06,74376.5,5.37,4.79,4.79,0,*7F
1529373706.57,16207,17.06,74380.3,5.35,4.75,4.75,0,*7C
1529373707.83,16208,17.06,74380.0,5.35,4.79,4.75,0,*7F
1529373709.06,16209,17.06,74376.3,5.33,4.75,4.75,0,*74
1529373710.29,16210,17.06,74378.0,5.37,4.79,4.79,0,*78
1529373711.55,16211,17.06,74376.3,5.35,4.75,4.75,0,*7B
1529373712.81,16212,17.06,74372.8,5.35,4.75,4.67,0,*7B
1529373714.07,16213,17.06,74380.3,5.35,4.75,4.75,0,*79
1529373715.33,16214,17.06,74380.5,5.35,4.75,4.75,0,*7E
1529373716.57,16215,17.06,74384.8,5.37,4.71,4.79,0,*75
1529373717.83,16216,17.06,74386.3,5.35,4.67,4.75,0,*7F
1529373719.08,16217,17.06,74386.0,5.35,4.67,4.67,0,*7D
1529373720.32,16218,17.06,74380.8,5.37,4.71,4.79,0,*78
1529373721.55,16219,17.06,74382.3,5.33,4.67,4.67,0,*75
1529373722.78,16220,17.06,74380.5,5.33,4.75,4.75,0,*7F
1529373724.04,16221,17.06,74384.8,5.35,4.75,4.75,0,*78
1529373725.3,16222,17.06,74380.8,5.35,4.75,4.75,0,*7B
1529373726.56,16223,17.06,74382.5,5.35,4.79,4.75,0,*76
1529373727.79,16224,17.06,74380.0,5.33,4.67,4.75,0,*78
1529373729.04,16225,17.06,74380.0,5.35,4.67,4.67,0,*7C
1529373730.27,16226,17.06,74380.0,5.33,4.67,4.75,0,*7A
1529373731.5,16227,17.06,74380.5,5.37,4.79,4.79,0,*7C
1529373732.76,16228,17.06,74382.3,5.35,4.75,4.75,0,*71
1529373734.02,16229,17.06,74374.3,5.35,4.75,4.75,0,*70
1529373735.23,16230,17.06,74382.8,5.37,4.81,4.79,0,*7D
1529373736.45,16231,17.06,74382.3,5.33,4.75,4.79,0,*73
1529373737.71,16232,17.06,74380.5,5.35,4.79,4.75,0,*76
1529373738.97,16233,17.06,74380.0,5.35,4.79,4.79,0,*7B
1529373740.2,16234,17.06,74382.0,5.33,4.75,4.75,0,*7A
1529373741.43,16235,17.06,74382.5,5.33,4.75,4.79,0,*77
1529373742.66,16236,17.06,74382.3,5.33,4.75,4.75,0,*78
1529373743.89,16237,17.06,74382.3,5.37,4.79,4.79,0,*7D
1529373745.15,16238,17.06,74382.3,5.35,4.79,4.75,0,*7C
1529373746.4,16239,17.06,74382.0,5.35,4.75,4.79,0,*7D
1529373747.66,16240,17.06,74380.5,5.35,4.75,4.75,0,*7F
1529373748.92,16241,17.06,74382.5,5.35,4.79,4.75,0,*72
1529373750.18,16242,17.06,74382.5,5.35,4.75,4.75,0,*7D
1529373751.44,16243,17.06,74384.3,5.35,4.79,4.75,0,*70
1529373752.7,16244,17.06,74382.0,5.35,4.75,4.75,0,*7B
1529373753.97,16245,17.06,74380.3,5.35,4.79,4.75,0,*76
1529373755.23,16246,17.06,74380.3,5.35,4.75,4.75,0,*79
1529373756.43,16247,17.06,74384.8,5.37,4.71,4.81,0,*75
1529373757.66,16248,17.06,74384.0,5.37,4.79,4.79,0,*75
1529373758.92,16249,17.06,74376.0,5.35,4.75,4.75,0,*76
1529373760.18,16250,17.06,74380.0,5.35,4.75,4.75,0,*7E
1529373761.41,16251,17.06,74378.8,5.33,4.75,4.75,0,*79
1529373762.61,16252,17.06,74376.3,5.37,4.81,4.79,0,*79
1529373763.87,16253,17.06,74380.0,5.35,4.75,4.75,0,*7D
1529373765.13,16254,17.06,74384.0,5.35,4.79,4.79,0,*7A
1529373766.39,16255,17.06,74380.8,5.35,4.79,4.79,0,*7B
1529373767.64,16256,17.06,74380.5,5.35,4.79,4.79,0,*78
1529373768.9,16257,17.06,74376.3,5.35,4.79,4.75,0,*75
1529373770.16,16258,17.06,74382.0,5.35,4.79,4.79,0,*76
1529373771.42,16259,17.06,74378.0,5.35,4.79,4.75,0,*7B
1529373772.65,16260,17.06,74378.8,5.37,4.71,4.79,0,*77
1529373773.89,16261,17.06,74378.3,5.37,4.71,4.79,0,*76
1529373775.12,16262,17.06,74382.3,5.37,4.71,4.79,0,*75
1529373776.3,16263,17.06,74380.3,5.37,4.81,4.81,0,*7C
1529373777.47,16264,17.06,74378.0,5.37,4.81,4.81,0,*7B
1529373778.64,16265,17.06,74380.0,5.41,4.85,4.81,0,*7F
1529373779.87,16266,17.06,74382.5,5.37,4.79,4.79,0,*79
1529373781.07,16267,17.06,74378.8,5.37,4.79,4.81,0,*7F
1529373782.33,16268,17.06,74376.8,5.35,4.79,4.75,0,*79
1529373783.53,16269,17.06,74382.8,5.37,4.81,4.79,0,*71
1529373784.7,16270,17.06,74380.3,5.37,4.81,4.89,0,*76
1529373785.87,16271,17.06,74382.3,5.37,4.81,4.89,0,*77
1529373787.07,16272,17.06,74380.5,5.37,4.79,4.89,0,*73
1529373788.25,16273,17.06,74376.5,5.37,4.81,4.81,0,*7D
1529373789.45,16274,17.06,74382.8,5.37,4.81,4.79,0,*7D
1529373790.65,16275,17.06,74382.5,5.37,4.79,4.81,0,*7C
1529373791.88,16276,17.06,74384.3,5.37,4.79,4.79,0,*78
1529373793.08,16277,17.06,74382.5,5.37,4.79,4.81,0,*7E
1529373794.27,16278,17.06,74376.5,5.37,4.79,4.81,0,*71
1529373795.5,16279,17.06,74384.0,5.37,4.79,4.79,0,*77
1529373796.73,16280,17.06,74382.3,5.37,4.79,4.79,0,*71
1529373797.93,16281,17.06,74384.5,5.37,4.81,4.79,0,*77
1529373799.19,16282,17.06,74382.8,5.35,4.75,4.75,0,*71
1529373800.4,16283,17.06,74380.8,5.37,4.81,4.79,0,*75
1529373801.63,16284,17.06,74384.5,5.37,4.79,4.79,0,*75
1529373802.85,16285,17.06,74384.3,5.37,4.79,4.79,0,*74
1529373804.06,16286,17.06,74382.5,5.37,4.81,4.79,0,*70
1529373805.32,16287,17.06,74378.5,5.35,4.79,4.75,0,*78
1529373806.58,16288,17.06,74382.0,5.35,4.75,4.75,0,*7B
1529373807.84,16289,17.06,74380.3,5.35,4.75,4.75,0,*7A
1529373809.04,16290,17.06,74382.8,5.37,4.81,4.79,0,*77
1529373810.27,16291,17.06,74384.8,5.37,4.79,4.79,0,*71
1529373811.5,16292,17.06,74380.8,5.37,4.79,4.79,0,*72
1529373812.73,16293,17.06,74382.0,5.37,4.71,4.79,0,*7B
1529373813.96,16294,17.06,74380.5,5.37,4.79,4.79,0,*74
1529373815.2,16295,17.06,74378.8,5.37,4.71,4.71,0,*75
1529373816.44,16296,17.06,74378.5,5.37,4.71,4.71,0,*76
1529373817.7,16297,17.06,74382.0,5.35,4.63,4.63,0,*75
1529373818.95,16298,17.06,74376.8,5.35,4.63,4.67,0,*7E
1529373820.21,16299,17.06,74376.0,5.35,4.67,4.67,0,*7B
1529373821.47,16300,17.06,74372.8,5.35,4.75,4.67,0,*79
1529373822.73,16301,17.06,74374.0,5.35,4.75,4.67,0,*78
1529373823.96,16302,17.06,74384.5,5.37,4.79,4.71,0,*72
1529373825.19,16303,17.06,74380.8,5.37,4.79,4.79,0,*7B
1529373826.42,16304,17.06,74382.5,5.37,4.79,4.79,0,*7C
1529373827.68,16305,17.06,74378.8,5.35,4.67,4.75,0,*7C
1529373828.93,16306,17.06,74382.0,5.35,4.75,4.67,0,*7F
1529373830.19,16307,17.06,74382.3,5.35,4.75,4.67,0,*7E
1529373831.45,16308,17.06,74386.5,5.35,4.75,4.75,0,*72
1529373832.71,16309,17.06,74382.5,5.35,4.63,4.75,0,*74
1529373833.94,16310,17.06,74380.3,5.37,4.79,4.71,0,*71
1529373835.15,16311,17.06,74386.5,5.37,4.71,4.81,0,*77
1529373836.35,16312,17.06,74384.3,5.37,4.79,4.81,0,*7C
1529373837.58,16313,17.06,74386.8,5.37,4.79,4.67,0,*75
1529373838.81,16314,17.06,74386.5,5.37,4.79,4.67,0,*72
1529373840.05,16315,17.06,74386.8,5.37,4.71,4.71,0,*7C
1529373841.28,16316,17.06,74386.8,5.41,4.75,4.75,0,*7E
1529373842.53,16317,17.06,74382.3,5.35,4.67,4.67,0,*7C
1529373843.79,16318,17.06,74380.5,5.35,4.63,4.63,0,*73
1529373845.05,16319,17.06,74380.5,5.35,4.67,4.67,0,*72
1529373846.3,16320,17.06,74386.0,5.35,4.67,4.67,0,*78
1529373847.56,16321,17.06,74382.3,5.35,4.67,4.67,0,*79
1529373848.82,16322,17.06,74380.8,5.35,4.75,4.67,0,*79
1529373850.07,16323,17.06,74386.3,5.35,4.67,4.67,0,*7B
1529373851.33,16324,17.06,74384.8,5.35,4.67,4.67,0,*7C
1529373852.59,16325,17.06,74384.5,5.35,4.75,4.67,0,*7E
1529373853.84,16326,17.06,74384.5,5.35,4.63,4.63,0,*7E
1529373855.07,16327,17.06,74386.5,5.33,4.67,4.67,0,*79
1529373856.33,16328,17.06,74390.3,5.35,4.67,4.67,0,*70
1529373857.59,16329,17.06,74386.3,5.35,4.67,4.75,0,*72
1529373858.79,16330,17.06,74386.0,5.37,4.71,4.81,0,*74
1529373860.05,16331,17.06,74390.0,5.35,4.67,4.67,0,*78
1529373861.31,16332,17.06,74390.3,5.35,4.75,4.67,0,*78
1529373862.57,16333,17.06,74394.8,5.35,4.75,4.75,0,*7A
1529373863.83,16334,17.06,74388.0,5.35,4.79,4.75,0,*71
1529373865.05,16335,17.06,74386.8,5.33,4.67,4.67,0,*7A
1529373866.31,16336,17.06,74388.3,5.35,4.75,4.75,0,*7F
1529373867.52,16337,17.06,74388.3,5.37,4.81,4.79,0,*7B
1529373868.77,16338,17.06,74388.0,5.35,4.75,4.79,0,*7D
1529373870.03,16339,17.06,74390.3,5.35,4.79,4.79,0,*70
1529373871.28,16340,17.06,74386.5,5.35,4.79,4.79,0,*7E
1529373872.55,16341,17.06,74390.0,5.35,4.75,4.75,0,*7F
1529373873.8,16342,17.06,74386.0,5.35,4.79,4.75,0,*70
1529373874.98,16343,17.06,74386.5,5.37,4.81,4.81,0,*7F
1529373876.24,16344,17.06,74386.5,5.35,4.75,4.75,0,*7A
1529373877.49,16345,17.06,74384.0,5.35,4.75,4.79,0,*77
1529373878.75,16346,17.06,74386.0,5.35,4.79,4.79,0,*78
1529373880.01,16347,17.06,74384.5,5.35,4.79,4.79,0,*79
1529373881.21,16348,17.06,74386.3,5.37,4.81,4.79,0,*73
1529373882.41,16349,17.06,74386.8,5.37,4.81,4.79,0,*72
1529373883.64,16350,17.06,74384.3,5.37,4.79,4.79,0,*7D
1529373884.87,16351,17.06,74388.5,5.37,4.79,4.79,0,*7C
1529373886.1,16352,17.06,74384.5,5.37,4.79,4.71,0,*77
1529373887.3,16353,17.06,74384.5,5.37,4.81,4.79,0,*79
1529373888.48,16354,17.06,74386.0,5.37,4.81,4.81,0,*79
1529373889.7,16355,17.06,74384.0,5.37,4.79,4.79,0,*78
1529373890.93,16356,17.06,74394.0,5.37,4.79,4.79,0,*7B
1529373892.19,16357,17.06,74390.0,5.35,4.79,4.75,0,*74
1529373893.42,16358,17.06,74392.0,5.37,4.79,4.79,0,*75
1529373894.65,16359,17.06,74392.3,5.37,4.79,4.79,0,*74
1529373895.82,16360,17.06,74388.8,5.37,4.81,4.81,0,*7E
1529373897.02,16361,17.06,74390.3,5.37,4.81,4.79,0,*78
1529373898.26,16362,17.06,74388.8,5.37,4.71,4.79,0,*74
1529373899.52,16363,17.06,74388.0,5.35,4.67,4.75,0,*7C
1529373900.75,16364,17.06,74390.8,5.37,4.79,4.79,0,*7A
1529373901.95,16365,17.06,74390.0,5.37,4.81,4.79,0,*7C
1529373903.21,16366,17.06,74386.5,5.35,4.75,4.79,0,*76
1529373904.47,16367,17.06,74386.5,5.35,4.75,4.75,0,*7B
1529373905.7,16368,17.06,74388.8,5.37,4.71,4.79,0,*7E
1529373906.94,16369,17.06,74392.5,5.33,4.75,4.75,0,*73
1529373908.16,16370,17.06,74392.3,5.37,4.79,4.79,0,*7F
1529373909.39,16371,17.06,74394.5,5.33,4.79,4.79,0,*7A
1529373910.62,16372,17.06,74394.5,5.37,4.79,4.71,0,*75
1529373911.85,16373,17.06,74388.0,5.37,4.79,4.79,0,*7C
1529373913.05,16374,17.06,74390.0,5.37,4.79,4.81,0,*7C
1529373914.25,16375,17.06,74386.0,5.37,4.79,4.81,0,*7D
1529373915.45,16376,17.06,74386.8,5.37,4.79,4.81,0,*7E
1529373916.65,16377,17.06,74386.8,5.37,4.81,4.79,0,*7F
1529373917.91,16378,17.06,74392.0,5.35,4.79,4.79,0,*75
1529373919.11,16379,17.06,74388.5,5.37,4.79,4.81,0,*71
1529373920.33,16380,17.06,74390.0,5.37,4.79,4.79,0,*70
1529373921.56,16381,17.06,74394.8,5.37,4.79,4.79,0,*71
1529373922.82,16382,17.06,74396.8,5.35,4.75,4.75,0,*70
1529373924.05,16383,17.06,74388.5,5.37,4.79,4.79,0,*73
1529373925.29,16384,17.06,74386.5,5.37,4.71,4.79,0,*7C
1529373926.49,16385,17.06,74384.3,5.37,4.79,4.81,0,*72
1529373927.72,16386,17.06,74380.3,5.37,4.79,4.79,0,*76
1529373928.97,16387,17.06,74386.8,5.35,4.75,4.79,0,*79
1529373930.14,16388,17.06,74384.3,5.37,4.81,4.81,0,*78
1529373931.35,16389,17.06,74386.8,5.37,4.81,4.79,0,*7E
1529373932.55,16390,17.06,74390.0,5.37,4.79,4.81,0,*76
1529373933.77,16391,17.06,74384.0,5.37,4.79,4.79,0,*70
1529373935.04,16392,17.06,74384.5,5.35,4.75,4.75,0,*71
1529373936.26,16393,17.06,74386.5,5.37,4.79,4.79,0,*72
1529373937.49,16394,17.06,74386.0,5.37,4.79,4.79,0,*75
1529373938.69,16395,17.06,74388.3,5.37,4.79,4.81,0,*73
1529373939.89,16396,17.06,74382.0,5.37,4.81,4.79,0,*70
1529373941.12,16397,17.06,74390.3,5.37,4.79,4.79,0,*76
1529373942.38,16398,17.06,74388.3,5.35,4.75,4.79,0,*77
1529373943.58,16399,17.13,74390.5,5.37,4.79,4.81,0,*7F
1529373944.75,16400,17.06,74384.8,5.37,4.81,4.81,0,*7F
1529373945.92,16401,17.06,74390.3,5.37,4.81,4.81,0,*7E
1529373947.13,16402,17.06,74390.5,5.37,4.81,4.79,0,*7A
1529373948.3,16403,17.06,74392.5,5.37,4.81,4.81,0,*7C
1529373949.47,16404,17.06,74396.3,5.37,4.81,4.81,0,*7B
1529373950.64,16405,17.06,74388.3,5.37,4.81,4.81,0,*7A
1529373951.9,16406,17.06,74384.3,5.35,4.75,4.79,0,*77
1529373953.13,16407,17.06,74388.3,5.37,4.79,4.79,0,*78
1529373954.3,16408,17.06,74386.3,5.37,4.81,4.81,0,*77
1529373955.53,16409,17.06,74384.5,5.37,4.79,4.79,0,*76
1529373956.73,16410,17.06,74382.8,5.37,4.79,4.81,0,*79
1529373957.93,16411,17.06,74386.8,5.37,4.81,4.79,0,*78
1529373959.1,16412,17.06,74386.0,5.37,4.81,4.81,0,*7C
1529373960.33,16413,17.06,74386.5,5.37,4.79,4.79,0,*7D
1529373961.59,16414,17.06,74386.8,5.35,4.75,4.79,0,*74
1529373962.82,16415,17.06,74386.0,5.37,4.79,4.79,0,*7B
1529373964.02,16416,17.06,74384.0,5.37,4.81,4.71,0,*77
1529373965.26,16417,17.06,74386.8,5.37,4.71,4.71,0,*79
1529373966.5,16418,17.06,74378.5,5.37,4.71,4.67,0,*71
1529373967.76,16419,17.06,74380.8,5.35,4.67,4.67,0,*75
1529373969.01,16420,17.06,74386.5,5.35,4.63,4.67,0,*7B
1529373970.25,16421,17.06,74386.0,5.37,4.71,4.67,0,*7B
1529373971.48,16422,17.06,74386.3,5.37,4.67,4.67,0,*7F
1529373972.71,16423,17.06,74388.3,5.37,4.67,4.67,0,*7E
1529373973.96,16424,17.06,74384.3,5.35,4.63,4.63,0,*7B
1529373975.22,16425,17.06,74386.3,5.35,4.67,4.63,0,*7E
1529373976.48,16426,17.06,74388.5,5.35,4.67,4.67,0,*79
1529373977.74,16427,17.06,74386.5,5.35,4.67,4.67,0,*78
1529373978.99,16428,17.06,74384.3,5.35,4.67,4.63,0,*73
1529373980.25,16429,17.06,74386.0,5.35,4.63,4.67,0,*72
1529373981.51,16430,17.06,74384.5,5.35,4.63,4.63,0,*7E
1529373982.76,16431,17.06,74390.0,5.35,4.63,4.63,0,*7F
1529373984.02,16432,17.06,74390.0,5.35,4.63,4.63,0,*7C
1529373985.28,16433,17.06,74386.5,5.35,4.75,4.75,0,*7D
1529373986.51,16434,17.06,74388.5,5.33,4.67,4.75,0,*7F
1529373987.77,16435,17.06,74388.8,5.35,4.75,4.79,0,*77
1529373989.03,16436,17.06,74390.5,5.35,4.67,4.75,0,*7B
1529373990.26,16437,17.06,74386.5,5.33,4.67,4.75,0,*7C
1529373991.52,16438,17.06,74386.5,5.35,4.79,4.79,0,*76
1529373992.77,16439,17.06,74384.0,5.35,4.67,4.67,0,*77
1529373994.03,16440,17.06,74386.3,5.35,4.75,4.75,0,*79
1529373995.29,16441,17.06,74384.0,5.35,4.67,4.67,0,*78
1529373996.55,16442,17.06,74384.0,5.35,4.63,4.67,0,*7F
1529373997.8,16443,17.06,74384.0,5.35,4.67,4.67,0,*7A
1529373999.06,16444,17.06,74384.8,5.35,4.67,4.75,0,*7E
1529374000.32,16445,17.06,74380.5,5.35,4.67,4.75,0,*7F
1529374001.55,16446,17.06,74382.5,5.33,4.75,4.67,0,*7A
1529374002.78,16447,17.06,74386.5,5.33,4.75,4.67,0,*7B
1529374004.04,16448,17.06,74384.8,5.35,4.67,4.75,0,*72
1529374005.29,16449,17.06,74382.3,5.35,4.67,4.63,0,*74
1529374006.52,16450,17.06,74384.0,5.33,4.67,4.63,0,*7A
1529374007.78,16451,17.06,74384.5,5.35,4.67,4.63,0,*7D
1529374009.04,16452,17.06,74380.5,5.35,4.67,4.63,0,*7E
1529374010.26,16453,17.06,74384.8,5.33,4.67,4.63,0,*79
1529374011.49,16454,17.06,74386.3,5.33,4.75,4.67,0,*79
1529374012.75,16455,17.06,74380.5,5.35,4.67,4.67,0,*7D
1529374013.95,16456,17.06,74382.5,5.37,4.71,4.81,0,*73
1529374015.19,16457,17.06,74384.0,5.37,4.71,4.71,0,*7D
1529374016.45,16458,17.06,74380.5,5.35,4.67,4.75,0,*73
1529374017.68,16459,17.06,74384.5,5.33,4.75,4.75,0,*77
1529374018.91,16460,17.06,74380.0,5.33,4.75,4.67,0,*7E
1529374020.17,16461,17.06,74386.3,5.35,4.63,4.67,0,*7E
1529374021.42,16462,17.06,74384.5,5.35,4.67,4.67,0,*79
1529374022.68,16463,17.06,74386.0,5.35,4.67,4.67,0,*78
1529374023.91,16464,17.06,74384.0,5.33,4.67,4.63,0,*7D
1529374025.17,16465,17.06,74382.5,5.35,4.67,4.75,0,*7D
1529374026.43,16466,17.06,74388.3,5.35,4.67,4.63,0,*79
1529374027.68,16467,17.06,74388.3,5.35,4.67,4.63,0,*78
1529374028.94,16468,17.06,74384.5,5.35,4.67,4.67,0,*73
1529374030.17,16469,17.06,74386.3,5.33,4.75,4.75,0,*74
1529374031.43,16470,17.06,74386.5,5.35,4.75,4.75,0,*7A
1529374032.69,16471,17.06,74382.8,5.35,4.67,4.67,0,*7B
1529374033.92,16472,17.06,74384.5,5.33,4.67,4.75,0,*7D
1529374035.14,16473,17.06,74384.5,5.33,4.67,4.67,0,*7F
1529374036.4,16474,17.06,74384.3,5.35,4.75,4.75,0,*7E
1529374037.64,16475,17.06,74386.3,5.33,4.75,4.75,0,*79
1529374038.87,16476,17.06,74386.0,5.33,4.67,4.75,0,*79
1529374040.1,16477,17.06,74382.5,5.33,4.75,4.75,0,*7B
1529374041.33,16478,17.06,74380.8,5.33,4.79,4.75,0,*78
1529374042.56,16479,17.06,74380.0,5.33,4.79,4.75,0,*79
1529374043.79,16480,17.06,74380.5,5.35,4.75,4.85,0,*7A
1529374044.96,16481,17.06,74380.3,5.37,4.81,4.81,0,*76
1529374046.19,16482,17.06,74384.3,5.33,4.75,4.75,0,*71
1529374047.42,16483,17.06,74388.8,5.33,4.79,4.79,0,*70
1529374048.68,16484,17.06,74384.3,5.35,4.67,4.75,0,*72
1529374049.93,16485,17.06,74384.8,5.35,4.67,4.67,0,*70
1529374051.19,16486,17.06,74380.0,5.35,4.67,4.67,0,*73
1529374052.45,16487,17.06,74380.8,5.35,4.67,4.67,0,*72
1529374053.67,16488,17.06,74384.0,5.33,4.67,4.67,0,*7B
1529374054.93,16489,17.06,74384.3,5.35,4.67,4.75,0,*7F
1529374056.19,16490,17.06,74388.0,5.35,4.79,4.75,0,*78
1529374057.42,16491,17.06,74384.0,5.37,4.79,4.79,0,*77
1529374058.68,16492,17.06,74382.3,5.35,4.75,4.79,0,*7A
1529374059.88,16493,17.06,74382.8,5.37,4.81,4.79,0,*72
1529374061.14,16494,17.06,74384.3,5.35,4.79,4.75,0,*7C
1529374062.34,16495,17.06,74386.8,5.37,4.79,4.81,0,*74
1529374063.57,16496,17.06,74386.0,5.37,4.79,4.79,0,*70
1529374064.8,16497,17.06,74380.0,5.37,4.79,4.71,0,*79
1529374066.06,16498,17.06,74382.8,5.35,4.67,4.67,0,*7C
1529374067.31,16499,17.06,74384.5,5.35,4.63,4.63,0,*7D
1529374068.54,16500,17.06,74382.3,5.33,4.67,4.67,0,*7A
1529374069.8,16501,17.06,74386.3,5.35,4.67,4.67,0,*7D
1529374071.06,16502,17.06,74380.3,5.35,4.67,4.75,0,*7D
1529374072.32,16503,17.06,74384.0,5.35,4.75,4.75,0,*7F
1529374073.58,16504,17.06,74384.3,5.35,4.67,4.75,0,*7B
1529374074.83,16505,17.06,74380.5,5.35,4.67,4.67,0,*79
1529374076.09,16506,17.06,74386.5,5.35,4.67,4.63,0,*7E
1529374077.32,16507,17.06,74382.3,5.33,4.67,4.63,0,*79
1529374078.58,16508,17.06,74380.3,5.35,4.67,4.67,0,*74
1529374079.8,16509,17.06,74386.5,5.33,4.79,4.67,0,*7C
1529374081.03,16510,17.06,74384.0,5.33,4.75,4.67,0,*78
1529374082.26,16511,17.06,74382.5,5.33,4.79,4.67,0,*75
1529374083.49,16512,17.06,74382.5,5.37,4.79,4.79,0,*7D
1529374084.72,16513,17.06,74384.5,5.37,4.79,4.71,0,*74
1529374085.97,16514,17.06,74384.0,5.35,4.75,4.67,0,*7A
1529374087.24,16515,17.06,74386.3,5.35,4.75,4.75,0,*78
1529374088.49,16516,17.06,74382.5,5.35,4.79,4.79,0,*7B
1529374089.75,16517,17.06,74380.3,5.35,4.75,4.79,0,*76
1529374090.98,16518,17.06,74382.3,5.37,4.71,4.79,0,*7F
1529374092.24,16519,17.06,74384.3,5.35,4.75,4.79,0,*78
1529374093.5,16520,17.06,74380.3,5.35,4.79,4.75,0,*72
1529374094.76,16521,17.06,74384.3,5.35,4.75,4.79,0,*73
1529374095.99,16522,17.06,74386.5,5.33,4.79,4.75,0,*76
1529374097.25,16523,17.06,74386.8,5.35,4.75,4.75,0,*7D
1529374098.48,16524,17.06,74388.3,5.33,4.75,4.75,0,*7C
1529374099.74,16525,17.06,74388.0,5.35,4.75,4.75,0,*7B
1529374100.97,16526,17.06,74386.0,5.37,4.75,4.75,0,*7A
1529374102.23,16527,17.06,74386.5,5.35,4.67,4.67,0,*79
1529374103.49,16528,17.06,74388.3,5.35,4.67,4.67,0,*76
1529374104.74,16529,17.06,74390.8,5.35,4.63,4.67,0,*73
1529374105.97,16530,17.06,74384.8,5.33,4.67,4.67,0,*79
1529374107.23,16531,17.06,74382.8,5.35,4.67,4.67,0,*7E
1529374108.45,16532,17.06,74384.0,5.33,4.67,4.67,0,*7B
1529374109.71,16533,17.06,74384.5,5.35,4.67,4.75,0,*7F
1529374110.92,16534,17.06,74388.3,5.37,4.71,4.81,0,*76
1529374112.18,16535,17.06,74386.0,5.35,4.75,4.75,0,*7A
1529374113.4,16536,17.06,74384.5,5.33,4.79,4.79,0,*7F
1529374114.6,16537,17.06,74384.8,5.37,4.79,4.81,0,*7D
1529374115.83,16538,17.06,74382.8,5.33,4.79,4.79,0,*71
1529374117.03,16539,17.06,74386.0,5.37,4.81,4.79,0,*73
1529374118.24,16540,17.06,74386.0,5.37,4.81,4.79,0,*7D
1529374119.5,16541,17.06,74384.8,5.35,4.75,4.75,0,*79
1529374120.69,16542,17.06,74380.0,5.37,4.79,4.81,0,*7F
1529374121.93,16543,17.06,74382.3,5.33,4.75,4.75,0,*7D
1529374123.16,16544,17.06,74384.8,5.33,4.79,4.75,0,*76
1529374124.41,16545,17.06,74380.5,5.35,4.79,4.79,0,*7D
1529374125.62,16546,17.06,74386.0,5.37,4.81,4.71,0,*73
1529374126.88,16547,17.06,74384.3,5.35,4.67,4.75,0,*7C
1529374128.14,16548,17.06,74386.0,5.35,4.63,4.75,0,*77
1529374129.37,16549,17.06,74384.3,5.33,4.67,4.75,0,*74
1529374130.57,16550,17.06,74386.0,5.37,4.81,4.79,0,*7C
1529374131.8,16551,17.06,74384.5,5.37,4.79,4.79,0,*7A
1529374133.06,16552,17.06,74384.3,5.35,4.75,4.79,0,*77
1529374134.26,16553,17.06,74382.8,5.37,4.81,4.79,0,*7F
1529374135.49,16554,17.06,74384.5,5.37,4.79,4.79,0,*7F
1529374136.74,16555,17.06,74388.0,5.35,4.67,4.79,0,*73
1529374138.0,16556,17.06,74384.8,5.35,4.75,4.75,0,*7F
1529374139.26,16557,17.06,74384.0,5.35,4.79,4.75,0,*72
1529374140.47,16558,17.06,74384.8,5.37,4.81,4.79,0,*74